JCSAT-18 (KACIFIC 1)

Last updated on Sat Sep 05 2026 00:03:06 GMT+0000 (Coordinated Universal Time)

1 44868U 19091A 26247.53239219 -.00000207 00000+0 00000+0 0 9993 2 44868 0.0490 310.6198 0000513 299.0146 75.6795 1.00272229 24801
UTC large
Height (km)
Speed (km/s)
/
Latitude / Longitude
Inclination (degrees)
Orbital Period (minutes)
Azimuth
Elevation
Range (km)
Doppler Factor

Next 0 passes for location: London (51.5072 / 0.1276)

No passes found over London.
JCSAT-18 (KACIFIC 1)